Location: Unspecified
(0.0000°N, 0.0000°E)
Time: 09:10:19
(UTC+00:00)

Vanguard 2 - All Passes

Search period start: 22 December 2014 00:00
Search period end: 01 January 2015 00:00
Orbit: 553 x 2946 km, 32.9° (Epoch: 21 December)

Date Brightness Start Highest point End Pass type
(mag) Time Alt. Az. Time Alt. Az. Time Alt. Az.
22 Dec - 06:28:48 10° NW 06:34:52 68° NE 06:45:13 10° ESE daylight
22 Dec - 08:37:38 10° W 08:45:33 38° SSW 08:57:59 10° SE daylight
22 Dec - 10:51:37 10° SW 11:00:01 19° SSW 11:10:22 10° SSE daylight
22 Dec - 13:08:51 10° SSW 13:18:07 16° S 13:27:38 10° SE daylight
22 Dec - 15:22:02 10° SSW 15:35:53 27° SSE 15:47:21 10° ESE daylight
22 Dec - 17:34:13 10° SW 17:50:16 59° SSE 18:00:31 10° ENE daylight
22 Dec - 19:48:39 10° WSW 20:01:07 49° NW 20:08:41 10° NE visible
23 Dec - 04:42:17 10° N 04:45:34 17° NE 04:49:42 10° E visible
23 Dec - 06:47:46 10° WNW 06:53:59 81° SW 07:04:47 10° SE daylight
23 Dec - 08:57:49 10° WSW 09:05:32 28° SSW 09:16:49 10° SSE daylight
23 Dec - 11:13:14 10° SW 11:20:55 16° S 11:29:52 10° SSE daylight
23 Dec - 13:28:58 10° SSW 13:39:19 18° SSE 13:49:40 10° SE daylight
23 Dec - 15:41:01 10° SSW 15:56:15 34° SSE 16:08:15 10° E daylight
23 Dec - 17:53:29 10° SW 18:09:48 77° SE 18:19:56 10° ENE daylight
23 Dec - 20:09:12 10° W 20:20:05 34° NW 20:27:08 10° NNE visible
24 Dec - 05:00:06 10° NNW 05:04:27 29° NE 05:10:40 10° E visible
24 Dec - 07:07:02 10° WNW 07:13:21 54° SSW 07:24:00 10° SE daylight
24 Dec - 09:18:30 10° WSW 09:25:44 22° SSW 09:35:36 10° SSE daylight
24 Dec - 11:34:47 10° SSW 11:42:00 15° S 11:50:08 10° SSE daylight
24 Dec - 13:48:28 10° SSW 14:00:19 21° SSE 14:11:49 10° ESE daylight
24 Dec - 15:59:59 10° SW 16:16:21 43° SSE 16:28:40 10° E daylight
24 Dec - 18:12:59 10° WSW 18:29:08 82° NW 18:39:03 10° NE visible
24 Dec - 20:30:24 10° W 20:39:06 23° NW 20:45:14 10° N visible
25 Dec - 05:18:31 10° NW 05:23:19 50° NE 05:30:50 10° ESE visible
25 Dec - 07:26:40 10° W 07:32:56 37° SSW 07:42:57 10° SE daylight
25 Dec - 09:39:42 10° SW 09:46:10 17° SSW 09:54:22 10° SSE daylight
25 Dec - 11:55:42 10° SSW 12:03:12 15° S 12:11:27 10° SE daylight
25 Dec - 14:07:35 10° SSW 14:21:02 26° SSE 14:33:37 10° ESE daylight
25 Dec - 16:18:59 10° SW 16:36:13 55° SSE 16:48:39 10° ENE daylight
25 Dec - 18:32:50 10° WSW 18:48:18 62° NW 18:57:56 10° NE visible
25 Dec - 20:52:38 10° WNW 20:58:16 15° NW 21:02:45 10° N visible
26 Dec - 05:37:18 10° NW 05:42:18 85° NE 05:50:28 10° SE daylight
26 Dec - 07:46:44 10° WSW 07:52:46 26° SSW 08:01:39 10° SSE daylight
26 Dec - 10:01:23 10° SSW 10:06:51 14° S 10:13:20 10° SSE daylight
26 Dec - 12:15:45 10° SSW 12:24:21 16° SSE 12:33:42 10° SE daylight
26 Dec - 14:26:31 10° SSW 14:41:27 32° SSE 14:54:55 10° E daylight
26 Dec - 16:38:08 10° SW 16:55:52 70° SE 17:08:15 10° ENE daylight
26 Dec - 18:53:05 10° WSW 19:07:23 46° NW 19:16:35 10° NNE visible
27 Dec - 03:50:18 10° N 03:53:14 18° NE 03:56:45 10° E visible
27 Dec - 05:56:27 10° WNW 06:01:30 58° SSW 06:09:43 10° SE daylight
27 Dec - 08:07:20 10° WSW 08:12:47 19° SSW 08:20:09 10° SSE daylight
27 Dec - 10:23:10 10° SSW 10:27:43 12° S 10:32:52 10° SSE daylight
27 Dec - 12:35:07 10° SSW 12:45:20 19° SSE 12:56:16 10° SE daylight
27 Dec - 14:45:24 10° SW 15:01:36 40° SSE 15:15:41 10° E daylight
27 Dec - 16:57:29 10° SW 17:15:20 88° SE 17:27:33 10° NE daylight
27 Dec - 19:13:54 10° W 19:26:29 33° NW 19:35:00 10° NNE visible
28 Dec - 04:08:19 10° NNW 04:12:09 33° NE 04:17:16 10° ESE visible
28 Dec - 06:15:58 10° W 06:20:57 36° SSW 06:28:37 10° SE daylight
28 Dec - 08:28:39 10° SW 08:33:01 14° SSW 08:38:23 10° SSE daylight
28 Dec - 10:44:15 10° SSW 10:48:44 12° S 10:53:43 10° SSE daylight
28 Dec - 12:54:07 10° SSW 13:06:02 23° SSE 13:18:36 10° ESE daylight
28 Dec - 15:04:19 10° SW 15:21:30 51° SSE 15:35:58 10° ENE daylight
28 Dec - 17:17:06 10° WSW 17:34:38 73° NW 17:46:36 10° NE daylight
28 Dec - 19:35:23 10° W 19:45:41 24° NW 19:53:09 10° NNE visible
29 Dec - 04:26:54 10° NW 04:31:04 64° NE 04:37:02 10° ESE visible
29 Dec - 06:35:58 10° WSW 06:40:36 24° SSW 06:47:11 10° SSE daylight
29 Dec - 08:51:10 10° SSW 08:53:28 11° S 08:55:59 10° S daylight
29 Dec - 11:04:03 10° S 11:09:45 13° SSE 11:16:07 10° SE daylight
29 Dec - 13:12:56 10° SSW 13:26:27 29° SSE 13:40:25 10° E daylight
29 Dec - 15:23:20 10° SW 15:41:12 64° SE 15:55:49 10° ENE daylight
29 Dec - 17:37:05 10° WSW 17:53:52 57° NW 18:05:25 10° NE daylight
29 Dec - 19:57:49 10° WNW 20:05:06 16° NW 20:10:52 10° N visible
30 Dec - 02:41:03 10° NNE 02:42:00 11° NE 02:42:58 10° NE visible
30 Dec - 04:45:54 10° WNW 04:50:09 67° SSW 04:56:20 10° SE visible
30 Dec - 06:56:38 10° SW 07:00:27 16° SSW 07:05:20 10° SSE daylight
30 Dec - 11:23:04 10° SSW 11:30:38 15° SSE 11:39:13 10° SE daylight
30 Dec - 13:31:41 10° SSW 13:46:34 36° SSE 14:01:38 10° E daylight
30 Dec - 15:42:30 10° SW 16:00:45 80° SE 16:15:19 10° ENE daylight
30 Dec - 17:57:32 10° WSW 18:13:05 43° NW 18:24:02 10° NNE daylight
30 Dec - 20:22:12 10° NW 20:24:48 11° NNW 20:27:11 10° NNW visible
31 Dec - 02:58:00 10° NNW 03:01:05 21° NE 03:04:29 10° E visible
31 Dec - 05:05:19 10° W 05:09:25 36° SSW 05:15:13 10° SE visible
31 Dec - 07:18:45 10° SSW 07:20:29 11° SSW 07:22:22 10° S daylight
31 Dec - 11:41:46 10° SSW 11:51:16 19° SSE 12:02:12 10° ESE daylight
31 Dec - 13:50:28 10° SW 14:06:27 46° SSE 14:22:17 10° E daylight
31 Dec - 16:01:54 10° WSW 16:20:10 83° NW 16:34:32 10° NE daylight
31 Dec - 18:18:32 10° W 18:32:23 32° NW 18:42:28 10° NNE visible
